| time (UTC) | temp F | wind direction | speed MPH | gust MPH | rain 1hr in | rain 24hr in | rain mn in | humidity % | barometer mb |
| 20260906084807 | 58 | 268 | 1.0 | 5.0 | 0.00 | 0.00 | 0.00 | 72 | 1022.6 |
| 20260906084307 | 58 | 250 | 1.0 | 6.0 | 0.00 | 0.00 | 0.00 | 71 | 1022.6 |
| 20260906083807 | 58 | 270 | 2.0 | 6.0 | 0.00 | 0.00 | 0.00 | 70 | 1022.4 |
| 20260906083308 | 58 | 268 | 1.0 | 3.0 | 0.00 | 0.00 | 0.00 | 69 | 1022.2 |
| 20260906082808 | 59 | 225 | 1.0 | 8.0 | 0.00 | 0.00 | 0.00 | 67 | 1022.4 |
| 20260906082308 | 59 | 182 | 3.0 | 8.0 | 0.00 | 0.00 | 0.00 | 67 | 1022.2 |
| 20260906081806 | 59 | 269 | 2.0 | 8.0 | 0.00 | 0.00 | 0.00 | 66 | 1022.1 |
| 20260906081308 | 59 | 270 | 3.0 | 8.0 | 0.00 | 0.00 | 0.00 | 65 | 1022.2 |
| 20260906080806 | 59 | 187 | 1.0 | 3.0 | 0.00 | 0.00 | 0.00 | 66 | 1022.3 |
| 20260906080307 | 59 | 267 | 2.0 | 6.0 | 0.00 | 0.00 | 0.00 | 66 | 1022.1 |
| 20260906075809 | 59 | 160 | 2.0 | 5.0 | 0.00 | 0.00 | 0.00 | 66 | 1022.0 |
| 20260906073806 | 60 | 270 | 3.0 | 6.0 | 0.00 | 0.00 | 0.00 | 67 | 1021.8 |
| 20260906073307 | 60 | 226 | 3.0 | 6.0 | 0.00 | 0.00 | 0.00 | 66 | 1021.8 |
| 20260906072807 | 60 | 272 | 3.0 | 6.0 | 0.00 | 0.00 | 0.00 | 66 | 1021.9 |
| 20260906072306 | 60 | 271 | 1.0 | 7.0 | 0.00 | 0.00 | 0.00 | 66 | 1021.8 |
| 20260906071806 | 60 | 247 | 3.0 | 9.0 | 0.00 | 0.00 | 0.00 | 66 | 1021.8 |
| 20260906070307 | 60 | 272 | 3.0 | 7.0 | 0.00 | 0.01 | 0.00 | 65 | 1021.6 |
| 20260906065806 | 60 | 249 | 3.0 | 6.0 | 0.00 | 0.02 | 0.00 | 64 | 1021.6 |
| 20260906065308 | 61 | 270 | 2.0 | 8.0 | 0.00 | 0.02 | 0.00 | 64 | 1021.6 |
| 20260906064806 | 61 | 226 | 3.0 | 5.0 | 0.00 | 0.02 | 0.00 | 64 | 1021.4 |
| 20260906064306 | 61 | 248 | 3.0 | 6.0 | 0.00 | 0.02 | 0.00 | 64 | 1021.4 |
| 20260906062807 | 61 | 184 | 2.0 | 6.0 | 0.00 | 0.07 | 0.00 | 65 | 1021.2 |
| 20260906061807 | 62 | 269 | 2.0 | 6.0 | 0.00 | 0.07 | 0.00 | 64 | 1021.2 |
| 20260906061306 | 62 | 162 | 3.0 | 7.0 | 0.00 | 0.07 | 0.00 | 64 | 1021.2 |
| 20260906060806 | 62 | 250 | 3.0 | 7.0 | 0.00 | 0.07 | 0.00 | 64 | 1021.2 |
| 20260906060307 | 63 | 271 | 2.0 | 8.0 | 0.00 | 0.07 | 0.00 | 63 | 1021.2 |
| 20260906055807 | 65 | 136 | 3.0 | 8.0 | 0.00 | 0.07 | 0.00 | 60 | 1021.3 |
| 20260906055306 | 65 | 116 | 2.0 | 5.0 | 0.00 | 0.07 | 0.00 | 61 | 1021.3 |
| 20260906054806 | 64 | 267 | 2.0 | 9.0 | 0.00 | 0.07 | 0.00 | 63 | 1021.2 |
| 20260906054306 | 62 | 249 | 2.0 | 6.0 | 0.00 | 0.07 | 0.00 | 65 | 1021.2 |
| 20260906053806 | 61 | 266 | 2.0 | 5.0 | 0.00 | 0.07 | 0.00 | 65 | 1021.2 |
| 20260906052807 | 61 | 202 | 1.0 | 6.0 | 0.00 | 0.07 | 0.00 | 68 | 1021.2 |
| 20260906052307 | 61 | 268 | 2.0 | 6.0 | 0.00 | 0.07 | 0.00 | 67 | 1021.0 |
| 20260906051806 | 62 | 269 | 3.0 | 6.0 | 0.00 | 0.07 | 0.00 | 66 | 1021.0 |
| 20260906050806 | 62 | 225 | 2.0 | 5.0 | 0.00 | 0.07 | 0.00 | 66 | 1021.2 |
| 20260906050306 | 62 | 251 | 1.0 | 5.0 | 0.00 | 0.07 | 0.00 | 66 | 1021.1 |
| 20260906045307 | 62 | 205 | 1.0 | 3.0 | 0.00 | 0.07 | 0.00 | 66 | 1021.0 |
| 20260906044806 | 62 | 227 | 1.0 | 3.0 | 0.00 | 0.07 | 0.00 | 65 | 1021.1 |
| 20260906044307 | 62 | 292 | 1.0 | 5.0 | 0.00 | 0.07 | 0.00 | 65 | 1020.9 |
| 20260906043306 | 62 | 273 | 2.0 | 3.0 | 0.00 | 0.07 | 0.00 | 65 | 1020.9 |
| 20260906042806 | 62 | 203 | 1.0 | 2.0 | 0.00 | 0.07 | 0.00 | 66 | 1021.1 |
| 20260906042307 | 62 | 249 | 0.0 | 3.0 | 0.00 | 0.07 | 0.00 | 68 | 1021.0 |
| 20260906041306 | 62 | 42 | 1.0 | 6.0 | 0.00 | 0.07 | 0.00 | 67 | 1021.0 |
| 20260906040807 | 62 | 160 | 3.0 | 6.0 | 0.00 | 0.07 | 0.00 | 66 | 1021.1 |
| 20260906040307 | 63 | 291 | 1.0 | 3.0 | 0.00 | 0.07 | 0.00 | 65 | 1020.9 |
| 20260906035807 | 63 | 289 | 1.0 | 6.0 | 0.00 | 0.07 | 0.00 | 64 | 1020.9 |
| 20260906035308 | 63 | 270 | 1.0 | 6.0 | 0.00 | 0.07 | 0.00 | 65 | 1020.7 |
| 20260906034806 | 63 | 290 | 1.0 | 3.0 | 0.00 | 0.07 | 0.00 | 65 | 1020.8 |
| 20260906033806 | 62 | 292 | 1.0 | 3.0 | 0.00 | 0.07 | 0.00 | 66 | 1020.8 |
| 20260906032807 | 62 | 225 | 1.0 | 5.0 | 0.00 | 0.07 | 0.00 | 67 | 1020.9 |
| 20260906032307 | 62 | 223 | 3.0 | 6.0 | 0.00 | 0.07 | 0.00 | 66 | 1021.1 |
| 20260906031807 | 63 | 226 | 2.0 | 5.0 | 0.00 | 0.07 | 0.00 | 66 | 1021.1 |
| 20260906031306 | 63 | 268 | 2.0 | 5.0 | 0.00 | 0.07 | 0.00 | 64 | 1021.0 |
| 20260906030806 | 64 | 247 | 1.0 | 6.0 | 0.00 | 0.07 | 0.00 | 62 | 1021.2 |
| 20260906030306 | 65 | 224 | 2.0 | 6.0 | 0.00 | 0.07 | 0.00 | 62 | 1021.0 |
| 20260906025806 | 63 | 137 | 1.0 | 2.0 | 0.00 | 0.07 | 0.00 | 63 | 1021.2 |
| 20260906024807 | 62 | 244 | 2.0 | 5.0 | 0.00 | 0.07 | 0.00 | 70 | 1021.2 |
| 20260906024307 | 61 | 270 | 1.0 | 6.0 | 0.00 | 0.07 | 0.00 | 69 | 1021.4 |
| 20260906022806 | 61 | 228 | 2.0 | 7.0 | 0.00 | 0.07 | 0.00 | 67 | 1021.3 |
| 20260906022307 | 61 | 312 | 2.0 | 5.0 | 0.00 | 0.07 | 0.00 | 67 | 1021.7 |
| 20260906021807 | 60 | 273 | 1.0 | 5.0 | 0.00 | 0.07 | 0.00 | 69 | 1021.7 |
| 20260906020807 | 60 | 291 | 2.0 | 6.0 | 0.00 | 0.07 | 0.00 | 71 | 1021.8 |
| 20260906020307 | 60 | 250 | 2.0 | 7.0 | 0.00 | 0.08 | 0.00 | 72 | 1021.8 |
| 20260906015807 | 60 | 248 | 3.0 | 7.0 | 0.00 | 0.08 | 0.00 | 71 | 1021.8 |
| 20260906014808 | 60 | 247 | 1.0 | 3.0 | 0.00 | 0.08 | 0.00 | 69 | 1021.8 |
| 20260906014307 | 59 | 248 | 1.0 | 5.0 | 0.00 | 0.08 | 0.00 | 71 | 1021.7 |
| 20260906013807 | 59 | 249 | 2.0 | 6.0 | 0.00 | 0.08 | 0.00 | 72 | 1021.9 |
| 20260906013307 | 59 | 225 | 2.0 | 7.0 | 0.00 | 0.08 | 0.00 | 73 | 1022.0 |
| 20260906012807 | 60 | 226 | 1.0 | 5.0 | 0.00 | 0.08 | 0.00 | 72 | 1021.8 |
| 20260906012307 | 60 | 271 | 3.0 | 5.0 | 0.00 | 0.08 | 0.00 | 69 | 1021.8 |
| 20260906011807 | 60 | 292 | 2.0 | 3.0 | 0.00 | 0.08 | 0.00 | 70 | 1022.0 |
| 20260906011307 | 59 | 183 | 1.0 | 3.0 | 0.00 | 0.08 | 0.00 | 72 | 1021.9 |
| 20260906010809 | 59 | 288 | 2.0 | 5.0 | 0.00 | 0.08 | 0.00 | 72 | 1021.8 |
| 20260906010306 | 59 | 289 | 2.0 | 5.0 | 0.00 | 0.08 | 0.00 | 73 | 1021.9 |
| 20260906005307 | 60 | 203 | 1.0 | 3.0 | 0.00 | 0.08 | 0.00 | 71 | 1021.7 |
| 20260906004807 | 60 | 248 | 1.0 | 5.0 | 0.00 | 0.08 | 0.00 | 70 | 1021.6 |
| 20260906004307 | 60 | 270 | 2.0 | 5.0 | 0.00 | 0.08 | 0.00 | 72 | 1021.8 |
| 20260906003308 | 58 | 249 | 1.0 | 5.0 | 0.00 | 0.08 | 0.00 | 75 | 1021.6 |
| 20260906002807 | 58 | 245 | 2.0 | 7.0 | 0.00 | 0.08 | 0.00 | 75 | 1021.7 |
| 20260906001806 | 59 | 246 | 2.0 | 6.0 | 0.00 | 0.08 | 0.00 | 74 | 1021.5 |
| 20260906001306 | 60 | 270 | 2.0 | 6.0 | 0.00 | 0.08 | 0.00 | 72 | 1021.4 |
| 20260905235807 | 59 | 292 | 3.0 | 7.0 | 0.00 | 0.08 | 0.00 | 74 | 1021.3 |
| 20260905235307 | 59 | 248 | 3.0 | 6.0 | 0.00 | 0.08 | 0.00 | 74 | 1021.3 |
| 20260905234806 | 59 | 139 | 2.0 | 5.0 | 0.00 | 0.08 | 0.00 | 74 | 1021.3 |
| 20260905234307 | 59 | 268 | 2.0 | 6.0 | 0.00 | 0.08 | 0.00 | 74 | 1021.2 |
| 20260905233806 | 59 | 226 | 3.0 | 6.0 | 0.00 | 0.08 | 0.00 | 74 | 1021.2 |
| 20260905233307 | 59 | 184 | 4.0 | 8.0 | 0.00 | 0.08 | 0.00 | 74 | 1021.2 |
| 20260905232806 | 59 | 271 | 3.0 | 6.0 | 0.00 | 0.08 | 0.00 | 75 | 1021.2 |
| 20260905231807 | 57 | 248 | 2.0 | 8.0 | 0.00 | 0.08 | 0.00 | 79 | 1021.1 |
| 20260905231307 | 57 | 248 | 6.0 | 8.0 | 0.00 | 0.08 | 0.00 | 80 | 1021.0 |
| 20260905230806 | 56 | 269 | 3.0 | 7.0 | 0.00 | 0.08 | 0.00 | 82 | 1021.0 |
| 20260905230306 | 56 | 271 | 2.0 | 6.0 | 0.00 | 0.08 | 0.00 | 84 | 1020.8 |
| 20260905225806 | 56 | 225 | 2.0 | 5.0 | 0.00 | 0.08 | 0.08 | 84 | 1020.9 |
| 20260905225306 | 56 | 269 | 1.0 | 5.0 | 0.00 | 0.08 | 0.08 | 83 | 1021.0 |
| 20260905224806 | 55 | 292 | 1.0 | 5.0 | 0.00 | 0.08 | 0.08 | 84 | 1020.9 |
| 20260905224306 | 55 | 271 | 3.0 | 9.0 | 0.00 | 0.08 | 0.08 | 83 | 1020.9 |
| 20260905223307 | 55 | 231 | 2.0 | 5.0 | 0.00 | 0.08 | 0.08 | 84 | 1020.6 |
| 20260905222806 | 55 | 246 | 2.0 | 5.0 | 0.00 | 0.08 | 0.08 | 84 | 1020.4 |
| 20260905222307 | 55 | 250 | 1.0 | 6.0 | 0.00 | 0.08 | 0.08 | 85 | 1020.5 |
| 20260905221806 | 55 | 270 | 2.0 | 7.0 | 0.00 | 0.08 | 0.08 | 85 | 1020.4 |
| 20260905221308 | 55 | 248 | 3.0 | 7.0 | 0.00 | 0.08 | 0.08 | 84 | 1020.3 |
| 20260905220807 | 54 | 269 | 2.0 | 6.0 | 0.00 | 0.08 | 0.08 | 84 | 1020.3 |
| 20260905220307 | 54 | 270 | 1.0 | 3.0 | 0.00 | 0.08 | 0.08 | 84 | 1020.0 |
| 20260905215807 | 54 | 270 | 1.0 | 7.0 | 0.00 | 0.08 | 0.08 | 85 | 1020.0 |
| 20260905215307 | 54 | 202 | 2.0 | 7.0 | 0.00 | 0.08 | 0.08 | 85 | 1020.0 |
| 20260905214309 | 53 | 271 | 1.0 | 6.0 | 0.00 | 0.08 | 0.08 | 86 | 1019.8 |
| 20260905213806 | 53 | 184 | 2.0 | 5.0 | 0.00 | 0.08 | 0.08 | 86 | 1019.8 |
| 20260905213309 | 53 | 248 | 1.0 | 3.0 | 0.00 | 0.08 | 0.08 | 86 | 1019.7 |
| 20260905212306 | 53 | 269 | 2.0 | 5.0 | 0.00 | 0.08 | 0.08 | 86 | 1019.5 |
| 20260905211806 | 53 | 337 | 1.0 | 5.0 | 0.00 | 0.08 | 0.08 | 86 | 1019.4 |
| 20260905211307 | 53 | 290 | 1.0 | 6.0 | 0.00 | 0.08 | 0.08 | 87 | 1019.3 |
| 20260905210307 | 53 | 291 | 3.0 | 7.0 | 0.00 | 0.08 | 0.08 | 86 | 1019.2 |
| 20260905205306 | 53 | 185 | 1.0 | 8.0 | 0.00 | 0.08 | 0.08 | 85 | 1018.9 |
| 20260905204807 | 53 | 228 | 2.0 | 6.0 | 0.00 | 0.09 | 0.08 | 84 | 1018.9 |
| 20260905204306 | 53 | 250 | 2.0 | 6.0 | 0.00 | 0.09 | 0.08 | 84 | 1018.9 |
| 20260905203806 | 53 | 250 | 2.0 | 6.0 | 0.00 | 0.09 | 0.08 | 84 | 1018.7 |
| 20260905202806 | 53 | 292 | 1.0 | 6.0 | 0.00 | 0.10 | 0.08 | 84 | 1018.4 |
| 20260905202307 | 53 | 269 | 2.0 | 5.0 | 0.00 | 0.10 | 0.08 | 84 | 1018.4 |
| 20260905201806 | 53 | 248 | 1.0 | 3.0 | 0.00 | 0.10 | 0.08 | 85 | 1018.7 |
| 20260905201307 | 53 | 270 | 1.0 | 3.0 | 0.00 | 0.10 | 0.08 | 85 | 1018.3 |
| 20260905200808 | 53 | 264 | 1.0 | 5.0 | 0.00 | 0.11 | 0.08 | 85 | 1018.3 |
| 20260905200307 | 53 | 292 | 1.0 | 3.0 | 0.00 | 0.11 | 0.08 | 85 | 1018.1 |
| 20260905195807 | 53 | 159 | 1.0 | 5.0 | 0.00 | 0.11 | 0.08 | 85 | 1018.2 |
| 20260905195307 | 53 | 226 | 1.0 | 5.0 | 0.00 | 0.11 | 0.08 | 84 | 1018.0 |
| 20260905194807 | 53 | 270 | 1.0 | 5.0 | 0.00 | 0.12 | 0.08 | 84 | 1017.9 |
| 20260905194307 | 53 | 242 | 2.0 | 7.0 | 0.00 | 0.12 | 0.08 | 84 | 1017.8 |
| 20260905192307 | 53 | 336 | 2.0 | 5.0 | 0.00 | 0.12 | 0.08 | 84 | 1017.9 |
| 20260905191807 | 53 | 226 | 3.0 | 7.0 | 0.00 | 0.12 | 0.08 | 84 | 1017.9 |
| 20260905191306 | 53 | 272 | 2.0 | 5.0 | 0.00 | 0.12 | 0.08 | 84 | 1017.9 |
| 20260905190807 | 53 | 247 | 1.0 | 3.0 | 0.00 | 0.12 | 0.08 | 84 | 1017.9 |
| 20260905190307 | 53 | 292 | 2.0 | 6.0 | 0.00 | 0.12 | 0.08 | 84 | 1017.9 |
| 20260905185806 | 53 | 273 | 3.0 | 7.0 | 0.00 | 0.12 | 0.08 | 84 | 1017.9 |
| 20260905185307 | 53 | 291 | 1.0 | 7.0 | 0.00 | 0.12 | 0.08 | 84 | 1017.8 |
| 20260905184306 | 53 | 313 | 3.0 | 9.0 | 0.00 | 0.12 | 0.08 | 84 | 1017.7 |
| 20260905183806 | 53 | 268 | 3.0 | 7.0 | 0.00 | 0.12 | 0.08 | 85 | 1017.5 |
| 20260905183306 | 53 | 249 | 3.0 | 6.0 | 0.00 | 0.12 | 0.08 | 85 | 1017.5 |
| 20260905182807 | 53 | 248 | 3.0 | 9.0 | 0.00 | 0.12 | 0.08 | 85 | 1017.3 |
| 20260905182307 | 53 | 226 | 4.0 | 9.0 | 0.00 | 0.12 | 0.08 | 85 | 1017.0 |
| 20260905181306 | 53 | 247 | 1.0 | 6.0 | 0.00 | 0.12 | 0.08 | 86 | 1016.8 |
| 20260905180806 | 53 | 269 | 3.0 | 9.0 | 0.00 | 0.13 | 0.08 | 86 | 1016.7 |
| 20260905175807 | 53 | 227 | 5.0 | 12.0 | 0.00 | 0.16 | 0.08 | 85 | 1016.5 |
| 20260905174808 | 54 | 202 | 3.0 | 10.0 | 0.00 | 0.18 | 0.08 | 83 | 1016.4 |
| 20260905174307 | 54 | 253 | 5.0 | 12.0 | 0.00 | 0.18 | 0.08 | 83 | 1016.1 |
| 20260905173807 | 54 | 250 | 4.0 | 12.0 | 0.00 | 0.18 | 0.08 | 82 | 1016.2 |
| 20260905173307 | 54 | 112 | 5.0 | 9.0 | 0.00 | 0.18 | 0.08 | 82 | 1016.0 |
| 20260905172807 | 54 | 249 | 3.0 | 15.0 | 0.00 | 0.18 | 0.08 | 82 | 1015.9 |
| 20260905172307 | 54 | 288 | 3.0 | 10.0 | 0.00 | 0.18 | 0.08 | 82 | 1015.9 |
| 20260905171306 | 54 | 271 | 2.0 | 10.0 | 0.00 | 0.18 | 0.08 | 82 | 1015.8 |
| 20260905170308 | 54 | 270 | 3.0 | 8.0 | 0.00 | 0.18 | 0.08 | 82 | 1015.5 |
| 20260905165807 | 54 | 249 | 3.0 | 7.0 | 0.00 | 0.19 | 0.08 | 82 | 1015.6 |
| 20260905165307 | 54 | 226 | 2.0 | 7.0 | 0.00 | 0.20 | 0.08 | 82 | 1015.7 |
| 20260905164806 | 54 | 311 | 2.0 | 7.0 | 0.00 | 0.21 | 0.08 | 82 | 1015.4 |
| 20260905164307 | 54 | 269 | 3.0 | 10.0 | 0.00 | 0.21 | 0.08 | 82 | 1015.4 |
| 20260905163807 | 54 | 220 | 3.0 | 9.0 | 0.00 | 0.21 | 0.08 | 82 | 1015.5 |
| 20260905163306 | 54 | 315 | 2.0 | 9.0 | 0.00 | 0.21 | 0.08 | 83 | 1015.2 |
| 20260905162807 | 54 | 268 | 3.0 | 7.0 | 0.00 | 0.21 | 0.08 | 83 | 1015.2 |
| 20260905162306 | 54 | 270 | 3.0 | 8.0 | 0.00 | 0.21 | 0.08 | 83 | 1015.2 |
| 20260905161806 | 54 | 248 | 2.0 | 8.0 | 0.00 | 0.21 | 0.08 | 83 | 1015.1 |
| 20260905161308 | 54 | 249 | 3.0 | 8.0 | 0.00 | 0.21 | 0.08 | 83 | 1015.0 |
| 20260905160806 | 54 | 249 | 2.0 | 9.0 | 0.00 | 0.22 | 0.08 | 83 | 1014.9 |
| 20260905160307 | 54 | 292 | 3.0 | 7.0 | 0.00 | 0.22 | 0.08 | 83 | 1014.8 |
| 20260905155306 | 54 | 271 | 3.0 | 10.0 | 0.00 | 0.23 | 0.08 | 83 | 1015.0 |
| 20260905154807 | 54 | 268 | 5.0 | 12.0 | 0.00 | 0.23 | 0.08 | 83 | 1014.8 |
| 20260905153807 | 54 | 313 | 3.0 | 12.0 | 0.00 | 0.23 | 0.08 | 83 | 1014.7 |
| 20260905153306 | 54 | 270 | 2.0 | 9.0 | 0.00 | 0.24 | 0.08 | 83 | 1014.3 |
| 20260905152306 | 54 | 266 | 3.0 | 9.0 | 0.00 | 0.26 | 0.08 | 83 | 1014.2 |
| 20260905151806 | 54 | 336 | 4.0 | 10.0 | 0.00 | 0.26 | 0.08 | 83 | 1014.1 |
| 20260905151307 | 54 | 292 | 5.0 | 10.0 | 0.00 | 0.26 | 0.08 | 83 | 1014.1 |
| 20260905150807 | 54 | 227 | 4.0 | 10.0 | 0.00 | 0.26 | 0.08 | 82 | 1014.1 |
| 20260905150307 | 54 | 269 | 3.0 | 8.0 | 0.00 | 0.26 | 0.08 | 82 | 1013.9 |
| 20260905145807 | 54 | 312 | 2.0 | 12.0 | 0.00 | 0.26 | 0.08 | 81 | 1013.7 |
| 20260905145307 | 54 | 271 | 5.0 | 12.0 | 0.00 | 0.26 | 0.08 | 81 | 1013.5 |
| 20260905144307 | 55 | 267 | 3.0 | 10.0 | 0.00 | 0.26 | 0.08 | 81 | 1013.3 |
| 20260905141806 | 55 | 290 | 4.0 | 10.0 | 0.00 | 0.26 | 0.08 | 80 | 1012.9 |
| 20260905141306 | 55 | 312 | 4.0 | 10.0 | 0.00 | 0.26 | 0.08 | 81 | 1012.8 |
| 20260905140808 | 55 | 268 | 5.0 | 8.0 | 0.00 | 0.26 | 0.08 | 81 | 1013.0 |
| 20260905140307 | 55 | 250 | 5.0 | 8.0 | 0.00 | 0.26 | 0.08 | 81 | 1012.8 |
| 20260905135809 | 55 | 313 | 3.0 | 8.0 | 0.00 | 0.27 | 0.08 | 81 | 1012.7 |
| 20260905135308 | 54 | 116 | 5.0 | 15.0 | 0.00 | 0.27 | 0.08 | 81 | 1012.6 |
| 20260905134806 | 54 | 269 | 3.0 | 9.0 | 0.00 | 0.28 | 0.08 | 82 | 1012.7 |
| 20260905134306 | 54 | 248 | 5.0 | 8.0 | 0.00 | 0.29 | 0.08 | 82 | 1012.6 |
| 20260905133807 | 54 | 226 | 3.0 | 7.0 | 0.00 | 0.29 | 0.08 | 82 | 1012.5 |
| 20260905133306 | 54 | 249 | 2.0 | 7.0 | 0.00 | 0.29 | 0.08 | 81 | 1012.5 |
| 20260905132806 | 54 | 335 | 2.0 | 7.0 | 0.00 | 0.29 | 0.08 | 80 | 1012.3 |
| 20260905131806 | 54 | 204 | 3.0 | 7.0 | 0.00 | 0.29 | 0.08 | 81 | 1012.1 |
| 20260905131306 | 54 | 248 | 2.0 | 7.0 | 0.00 | 0.29 | 0.08 | 81 | 1011.9 |
| 20260905130806 | 54 | 250 | 3.0 | 8.0 | 0.00 | 0.29 | 0.08 | 81 | 1011.8 |
| 20260905130306 | 54 | 292 | 5.0 | 8.0 | 0.00 | 0.29 | 0.08 | 81 | 1011.7 |
| 20260905125807 | 54 | 102 | 2.0 | 8.0 | 0.00 | 0.29 | 0.08 | 81 | 1011.6 |
| 20260905125306 | 54 | 227 | 2.0 | 7.0 | 0.00 | 0.29 | 0.08 | 81 | 1011.5 |
| 20260905124806 | 54 | 246 | 2.0 | 6.0 | 0.00 | 0.29 | 0.08 | 81 | 1011.4 |
| 20260905124307 | 54 | 296 | 3.0 | 5.0 | 0.00 | 0.29 | 0.08 | 80 | 1011.5 |
| 20260905123806 | 54 | 14 | 2.0 | 12.0 | 0.00 | 0.29 | 0.08 | 80 | 1011.4 |
| 20260905123306 | 54 | 271 | 3.0 | 12.0 | 0.00 | 0.29 | 0.08 | 79 | 1011.2 |
| 20260905122807 | 54 | 271 | 3.0 | 9.0 | 0.00 | 0.29 | 0.08 | 78 | 1011.2 |
| 20260905122307 | 55 | 223 | 2.0 | 8.0 | 0.00 | 0.29 | 0.08 | 78 | 1010.9 |
| 20260905121806 | 54 | 272 | 3.0 | 8.0 | 0.00 | 0.29 | 0.08 | 78 | 1010.8 |
| 20260905121306 | 54 | 313 | 3.0 | 6.0 | 0.00 | 0.29 | 0.08 | 77 | 1010.9 |
| 20260905120807 | 54 | 357 | 2.0 | 5.0 | 0.00 | 0.29 | 0.08 | 77 | 1010.5 |
| 20260905120306 | 54 | 268 | 3.0 | 8.0 | 0.00 | 0.29 | 0.08 | 77 | 1010.6 |
| 20260905115806 | 54 | 159 | 2.0 | 7.0 | 0.00 | 0.29 | 0.08 | 77 | 1010.6 |
| 20260905115306 | 54 | 315 | 1.0 | 9.0 | 0.00 | 0.29 | 0.08 | 77 | 1010.4 |
| 20260905114806 | 54 | 249 | 3.0 | 9.0 | 0.00 | 0.29 | 0.08 | 76 | 1010.4 |
| 20260905114306 | 54 | 0 | 3.0 | 7.0 | 0.00 | 0.29 | 0.08 | 76 | 1010.4 |
| 20260905113806 | 54 | 251 | 2.0 | 6.0 | 0.00 | 0.30 | 0.08 | 76 | 1010.4 |
| 20260905113306 | 54 | 312 | 2.0 | 7.0 | 0.00 | 0.30 | 0.08 | 76 | 1010.2 |
| 20260905112807 | 54 | 291 | 2.0 | 6.0 | 0.00 | 0.30 | 0.08 | 76 | 1010.3 |
| 20260905112308 | 54 | 294 | 2.0 | 6.0 | 0.00 | 0.30 | 0.08 | 76 | 1010.2 |
| 20260905111806 | 54 | 271 | 2.0 | 5.0 | 0.00 | 0.30 | 0.08 | 76 | 1010.1 |
| 20260905111308 | 54 | 42 | 2.0 | 7.0 | 0.00 | 0.30 | 0.08 | 76 | 1010.1 |
| 20260905110807 | 54 | 290 | 2.0 | 6.0 | 0.00 | 0.30 | 0.08 | 76 | 1010.1 |
| 20260905110308 | 54 | 292 | 3.0 | 8.0 | 0.00 | 0.30 | 0.08 | 76 | 1009.9 |
| 20260905105307 | 54 | 203 | 5.0 | 10.0 | 0.00 | 0.30 | 0.08 | 76 | 1009.8 |
| 20260905104808 | 54 | 226 | 3.0 | 9.0 | 0.00 | 0.30 | 0.08 | 75 | 1009.4 |
| 20260905104307 | 54 | 315 | 3.0 | 7.0 | 0.00 | 0.30 | 0.08 | 75 | 1009.5 |
| 20260905103807 | 54 | 248 | 2.0 | 8.0 | 0.00 | 0.30 | 0.08 | 75 | 1009.3 |
| 20260905103306 | 54 | 316 | 2.0 | 6.0 | 0.00 | 0.30 | 0.08 | 74 | 1009.2 |
| 20260905102806 | 54 | 112 | 2.0 | 7.0 | 0.00 | 0.30 | 0.08 | 73 | 1009.0 |
| 20260905102306 | 55 | 294 | 3.0 | 7.0 | 0.00 | 0.30 | 0.08 | 73 | 1008.8 |
| 20260905101807 | 55 | 268 | 3.0 | 7.0 | 0.00 | 0.31 | 0.08 | 73 | 1008.9 |
| 20260905101306 | 55 | 313 | 2.0 | 7.0 | 0.00 | 0.31 | 0.08 | 73 | 1008.8 |
| 20260905100807 | 54 | 315 | 3.0 | 6.0 | 0.00 | 0.31 | 0.08 | 74 | 1009.2 |
| 20260905100307 | 54 | 18 | 2.0 | 6.0 | 0.00 | 0.32 | 0.08 | 74 | 1008.8 |
| 20260905095806 | 54 | 272 | 2.0 | 7.0 | 0.00 | 0.32 | 0.08 | 74 | 1009.0 |
| 20260905094806 | 54 | 336 | 3.0 | 9.0 | 0.00 | 0.32 | 0.08 | 73 | 1008.3 |
| 20260905094306 | 54 | 248 | 4.0 | 10.0 | 0.00 | 0.32 | 0.08 | 73 | 1008.2 |
| 20260905093307 | 53 | 314 | 1.0 | 3.0 | 0.00 | 0.32 | 0.08 | 75 | 1008.3 |
| 20260905092807 | 53 | 205 | 1.0 | 5.0 | 0.00 | 0.32 | 0.08 | 75 | 1008.2 |
| 20260905091807 | 53 | 267 | 2.0 | 5.0 | 0.00 | 0.32 | 0.08 | 75 | 1007.3 |
| 20260905091306 | 53 | 311 | 2.0 | 5.0 | 0.00 | 0.32 | 0.08 | 75 | 1007.2 |
| 20260905090807 | 53 | 314 | 2.0 | 7.0 | 0.00 | 0.32 | 0.08 | 75 | 1007.3 |
| 20260905085807 | 54 | 44 | 2.0 | 6.0 | 0.00 | 0.32 | 0.08 | 75 | 1007.3 |
| 20260905085307 | 54 | 246 | 3.0 | 7.0 | 0.00 | 0.32 | 0.08 | 74 | 1007.2 |